Kuchera_Ratio
0.0 0.0 0.0 0.0 0.0 0.0 0.0 0.0 0.0 0.0 0.0 0.0 0.0 0.0 0.0 0.0 0.0 0.0 0.0 0.0 0.0 0.0 0.0 0.0 0.0 0.0 0.0 0.0 0.0 0.0 0.0 0.0 0.0 0.0 0.0 0.0 0.0 0.0 0.0 0.0 0.0 0.0 0.0 0.0
0.0 0.0 0.0 0.0 0.0 0.0 0.0 0.0 0.0 0.0 0.0 0.0 0.0 0.0 0.0 0.0 0.0 0.0 0.0 0.0 0.0 0.0 0.0 0.0 0.0 0.0 0.0 0.0 0.0 0.0 0.0 0.0 0.0 0.0 0.0 0.0 0.0 0.0 0.0 0.0 0.0 0.0 0.0 0.0
0.0 0.0 0.0 0.0 0.0 0.0 0.0 0.0 0.0 0.4 0.0 0.0 0.0 0.0 0.0 0.0 0.0 0.0 0.0 0.0 0.0 0.0 0.0 0.0 0.0 0.0 0.0 0.0 0.0 0.0 0.0 0.0 0.0 0.0 0.0 0.0 0.0 0.0 0.0 0.0 0.0 0.0 0.0 0.0
0.0 0.0 0.0 0.0 0.0 0.0 0.0 0.0 0.0 0.6 0.7 2.1 2.0 3.6 0.0 0.0 0.0 0.0 0.0 0.0 0.0 0.0 0.0 0.0 0.0 0.0 0.0 0.0 0.0 0.0 0.0 0.0 0.0 0.0 0.0 0.0 0.0 0.0 0.0 0.0 0.0 0.0 0.0 0.0
0.0 0.0 0.0 0.0 0.0 0.0 0.0 0.0 0.0 0.7 2.9 3.6 3.5 5.0 0.0 0.0 0.0 0.0 0.0 0.0 0.0 0.0 0.0 0.0 0.0 0.0 0.0 0.0 0.0 0.0 0.0 0.0 0.0 0.0 0.0 0.0 0.0 0.0 0.0 0.0 0.0 0.0 0.0 0.0
0.0 0.0 0.0 0.0 0.0 0.0 0.0 0.0 1.2 3.2 6.0 6.4 3.9 5.3 0.4 0.0 0.0 0.0 0.0 0.0 0.0 0.0 0.0 0.0 0.0 0.0 0.0 0.0 0.0 0.0 0.0 0.0 0.0 0.0 0.0 0.0 0.0 0.0 0.0 0.0 0.0 0.0 0.0 0.0
0.0 0.0 0.0 0.0 0.0 0.0 0.0 0.0 4.1 8.4 6.0 7.5 5.8 6.1 0.2 0.0 0.0 0.0 0.0 0.0 0.0 0.0 0.0 0.0 0.0 0.0 0.0 0.0 0.0 0.0 0.0 0.0 0.0 0.0 0.0 0.0 0.0 0.0 0.0 0.0 0.0 0.0 0.0 0.0
0.0 0.0 0.0 0.0 0.0 0.0 1.0 1.3 5.5 12.2 11.4 11.4 6.2 7.3 0.0 0.0 0.0 0.0 0.0 0.0 0.0 0.0 0.0 0.0 0.0 0.0 0.0 0.0 0.0 0.0 0.0 0.0 0.0 0.0 0.0 0.0 0.0 0.0 0.0 0.0 0.0 0.0 0.0 0.0
0.0 0.0 0.0 0.3 0.0 1.0 4.5 4.8 4.0 9.3 12.9 14.1 8.2 2.4 0.0 0.0 0.0 0.0 0.0 0.0 0.0 0.0 0.0 0.0 0.0 0.0 0.0 0.0 0.0 0.0 0.0 0.0 0.0 0.0 0.0 0.0 0.0 0.0 0.0 0.0 0.0 0.0 0.0 0.0
0.0 3.0 1.5 1.6 0.8 3.4 3.8 4.8 9.9 11.1 14.5 15.5 10.6 6.6 3.7 1.4 0.0 0.0 0.0 0.0 0.0 0.0 0.0 0.0 0.0 0.0 0.0 0.0 0.0 0.0 0.0 0.0 0.0 0.0 0.0 0.0 0.0 0.0 0.0 0.0 0.0 0.0 0.0 0.2
0.0 0.5 5.5 5.2 4.1 3.3 7.2 7.5 8.3 10.4 12.3 14.2 14.9 10.4 2.9 3.9 4.3 5.6 4.4 2.6 1.3 0.0 0.0 0.0 0.0 0.0 0.0 0.0 0.0 0.0 0.0 0.0 0.0 0.0 0.0 0.0 0.0 0.0 0.0 0.0 0.0 0.0 0.0 0.3
0.1 3.5 9.0 3.2 4.2 6.1 5.2 6.0 5.2 12.6 12.6 12.7 13.6 11.7 4.9 5.0 5.8 4.9 4.8 3.2 0.0 0.0 0.5 0.0 0.0 0.0 0.0 0.0 0.0 0.0 0.0 0.0 0.0 0.0 0.0 0.0 0.0 0.0 0.0 0.0 0.0 0.0 0.5 0.8
0.1 5.5 10.1 9.7 10.0 8.7 8.5 7.9 7.5 8.2 12.3 13.7 13.9 12.5 5.5 7.5 5.1 5.3 3.3 3.9 1.7 1.4 2.7 2.2 0.0 0.0 0.0 0.0 0.0 0.0 0.0 0.0 0.0 0.0 0.0 0.0 0.0 0.5 0.5 0.8 1.0 1.3 1.7 2.0
0.0 5.6 6.4 10.4 6.8 4.4 7.2 5.0 6.1 6.5 13.0 13.8 10.4 6.8 6.0 9.8 11.7 9.2 5.4 4.2 3.8 5.1 5.9 7.5 5.6 4.0 1.7 0.8 0.9 0.5 0.0 0.0 0.0 0.5 0.8 1.2 1.0 1.3 1.8 2.3 2.9 3.3 3.3 3.8
1.7 9.0 7.1 6.1 4.4 4.7 4.4 4.9 6.7 9.7 7.3 12.2 7.1 7.7 9.3 10.9 9.9 9.2 6.9 6.0 7.5 8.4 9.9 8.6 7.3 5.6 3.9 3.1 2.6 1.7 2.1 1.5 1.3 2.6 3.6 4.1 4.3 4.2 5.1 5.5 5.5 5.5 5.7 5.9
4.8 9.5 10.4 11.0 6.1 6.8 10.0 9.1 8.4 8.4 8.7 6.8 6.2 8.1 8.9 9.6 9.5 9.2 7.6 10.0 10.9 12.1 12.7 9.2 7.3 4.6 5.3 5.3 5.2 5.2 4.8 5.0 4.0 5.8 6.9 5.9 7.1 7.4 8.2 7.5 7.1 7.2 7.2 7.3
7.8 11.0 12.7 12.7 8.9 11.3 14.4 9.8 8.8 12.1 11.6 10.8 12.9 13.4 11.7 12.7 10.6 9.7 9.9 10.1 12.6 10.9 9.7 8.0 7.3 7.0 5.5 5.5 6.1 7.2 7.1 6.9 8.0 9.2 9.6 8.9 8.5 9.4 8.8 8.6 9.3 9.4 9.5 9.7
11.1 12.5 11.8 13.3 12.6 16.9 12.3 11.3 8.8 11.3 13.7 12.9 13.0 13.2 11.9 10.8 10.8 10.1 8.7 9.2 10.4 9.4 8.7 8.4 7.6 6.4 5.7 4.1 6.4 7.6 8.7 9.7 10.6 11.4 11.6 10.9 10.9 11.7 12.0 11.9 12.1 11.4 10.1 10.0
3.0 10.2 13.1 14.7 14.5 12.4 12.7 11.4 11.0 14.3 14.3 11.9 14.2 14.0 11.1 10.5 11.3 10.2 8.3 9.7 9.5 9.2 8.5 7.8 6.4 6.8 6.3 8.3 7.8 9.5 11.3 12.1 12.6 12.3 12.4 12.5 12.1 12.1 12.3 12.2 11.3 8.7 9.6 10.9
9.3 9.8 11.9 14.0 16.4 18.1 15.2 10.9 6.3 8.4 16.9 10.7 12.1 13.5 13.2 9.8 16.2 15.6 10.3 8.4 8.4 8.3 7.7 7.7 6.3 7.5 8.5 8.3 9.5 12.1 13.0 13.4 13.6 12.8 12.6 12.5 12.5 12.8 13.1 12.8 11.4 11.9 12.0 10.9
14.3 15.2 15.6 15.1 15.9 15.0 12.1 6.9 7.6 17.1 17.7 12.7 12.1 12.3 12.4 16.0 12.8 12.6 9.0 8.9 8.0 8.1 8.4 7.2 8.8 11.6 11.3 11.3 12.5 14.5 14.4 15.1 14.0 13.2 13.1 13.0 13.2 13.4 13.3 13.1 12.9 13.0 13.0 12.2
14.6 16.0 17.5 16.6 18.9 18.5 10.1 8.6 14.1 12.7 9.3 11.6 12.2 12.8 13.4 13.5 13.1 9.5 8.1 8.1 9.1 8.4 9.1 11.0 12.5 13.7 13.2 13.5 14.5 15.8 16.2 14.8 14.2 14.2 14.3 14.3 14.1 13.4 12.5 13.4 13.4 13.3 13.9 14.8
14.4 12.6 14.3 14.3 14.5 8.9 10.1 8.7 7.3 7.4 11.1 12.3 12.8 13.2 12.9 13.3 13.4 11.3 11.4 9.6 12.7 12.1 12.8 13.3 14.3 14.7 15.4 15.7 16.1 16.7 16.6 15.3 15.1 15.3 15.6 15.3 14.3 13.5 13.0 13.6 14.1 14.5 14.8 15.8
10.9 8.1 13.1 12.8 12.0 11.3 9.2 4.9 4.6 5.0 8.4 10.1 9.3 10.9 10.9 13.7 12.4 12.7 13.4 14.0 14.4 13.8 14.4 15.1 15.8 16.3 16.5 17.1 17.4 17.8 18.2 16.1 16.4 16.5 16.4 15.8 15.7 14.6 14.0 13.6 13.5 14.7 15.6 15.9
13.6 11.8 12.6 13.4 12.0 12.0 9.1 7.2 6.8 6.9 6.8 8.7 6.9 10.1 11.8 12.8 13.5 14.3 15.1 15.3 15.2 15.7 16.0 16.8 17.5 17.4 17.5 17.8 17.9 18.7 18.9 18.1 17.8 17.0 16.8 16.3 15.5 15.9 15.6 14.5 14.7 14.3 13.5 13.2
11.1 13.6 14.1 15.3 10.8 11.3 10.2 6.5 6.1 8.3 9.4 10.4 11.7 12.6 12.9 13.9 14.9 15.8 16.2 16.4 16.8 17.0 17.6 17.8 17.8 17.7 18.0 18.1 18.2 19.0 18.8 19.4 19.1 18.0 16.6 16.9 15.7 16.3 15.3 15.6 15.2 10.9 8.9 7.0